Terminal Aerodrome Forecast
Issued by NWS

Home | Current Version | Previous Version | Text Only | Print | Product List | Glossary On
Versions: 1 2 3 4 5 6 7 8 9 10 11 12 13 14 15 16 17 18 19 20 21 22 23 24 25 26
000
FTUS45 KGJT 221738
TAFCNY
TAF
KCNY 221738Z 2218/2318 16007KT P6SM OVC080
     FM222100 20010G18KT P6SM VCSH SCT100 BKN150
     FM230200 12010KT P6SM VCSH SCT080 BKN150
     FM230600 21007KT P6SM VCSH SCT070 BKN110
     FM231200 17004KT P6SM VCSH SCT070 BKN110=

USA.gov is the U.S. government's official web portal to all federal, state and local government web resources and services.